Location: A O Calhoun Middle School
(33.2198°N, 97.1397°W)
Time: 04:29:50
(UTC+00:00)

Cosmos 1538 Rocket - Pass Details

Date: 06 July 2022
Orbit: 752 x 791 km, 74.0° (Epoch: 07 August)

Event Time Altitude Azimuth Distance (km) Brightness Sun altitude
Exits shadow 09:54:39 - 170° (S) 2,686 6.5 -16.4°
Reaches altitude 10° 09:55:43 10° 165° (SSE) 2,302 6.2 -16.2°
Maximum altitude 10:00:26 35° 101° (E) 1,214 5.4 -15.5°
Drops below altitude 10° 10:05:07 10° 36° (NE) 2,292 7.8 -14.7°
Sets 10:07:38 0° 28° (NNE) 3,216 8.6 -14.3°
